Home > Weather > Barnstable > Past weeks

Flag for USA Weather for the Past 2 Weeks in Barnstable, Massachusetts, USA

Now
46 °F

Mostly cloudy.


Feels Like: 41 °F
Forecast: 45 / 54 °F
Wind: 10 mph from North

Location: Barnstable Municipal-Boardman Airport

Current Time: May 6, 2016 at 7:48:52 AM

Latest Report: May 6, 2016 at 6:56 AM


Visibility: 10 mi

Pressure: 29.73 "Hg

Humidity: 93%

Dew Point: 44 °F

Location of BarnstableLocation

Historic Weather in Barnstable — Graph

°F

Barnstable Temperature Yesterday

Maximum temperature yesterday: 46 °F (at 8:56 AM)
Minimum temperature yesterday: 44 °F (at 5:56 PM)
Average temperature yesterday: 45 °F

High & Low Weather Summary for the Past Weeks

 TemperatureHumidityPressure
High71 °F (Apr 22, 11:56 AM)100% (May 2, 1:56 PM)30.27 "Hg (May 2, 1:56 PM)
Low34 °F (Apr 30, 5:56 AM)28% (Apr 28, 12:56 PM)29.57 "Hg (May 5, 10:56 PM)
Average48 °F74%29.94 "Hg
* Reported Apr 21 6:56 AM — May 6 6:01 AM, Barnstable, Weather by CustomWeather, © 2016

Note: Actual official high and low records may vary slightly from our data, if they occured in-between our weather recording intervals... More about our weather records

Advertising

Barnstable Weather History for the Previous 24 Hours

Scroll right to see more
 ConditionsComfort  
Time TempWeatherWind HumidityBarometerVisibility
6:01 AM
Fri, May 6
45 °FLight rain. Fog.12 mph97%29.69 "Hg3 mi
4:56 AM45 °FLow clouds.12 mph93%29.67 "Hg10 mi
3:56 AM45 °FLow clouds.15 mph93%29.63 "Hg10 mi
2:56 AM45 °FLight rain. Low clouds.16 mph93%29.60 "Hg7 mi
1:56 AM45 °FLight rain. Fog.18 mph93%29.59 "Hg4 mi
12:56 AM45 °FLight rain. Fog.17 mph90%29.59 "Hg6 mi
11:56 PM
Thu, May 5
45 °FLow clouds.15 mph90%29.60 "Hg10 mi
10:56 PM45 °FLight rain. Low clouds.24 mph90%29.57 "Hg9 mi
9:56 PM45 °FLight rain. Low clouds.23 mph90%29.59 "Hg8 mi
8:56 PM45 °FLight rain. Low clouds.22 mph90%29.60 "Hg8 mi
7:56 PM44 °FRain. Fog.20 mph93%29.59 "Hg6 mi
6:56 PM44 °FLight rain. Fog.22 mph93%29.60 "Hg6 mi
5:56 PM44 °FRain. Fog.21 mph93%29.62 "Hg6 mi
4:56 PM45 °FRain. Fog.18 mph90%29.64 "Hg5 mi
3:56 PM45 °FLight rain. Fog.17 mph90%29.64 "Hg6 mi
2:56 PM45 °FLight rain. Fog.22 mph93%29.65 "Hg6 mi
1:58 PM45 °FRain. Fog.17 mph93%29.66 "Hg3 mi
12:56 PM46 °FHeavy rain. Fog.20 mph89%29.67 "Hg1 mi
11:56 AM45 °FRain. Fog.22 mph93%29.68 "Hg1 mi
10:56 AM46 °FFog.20 mph89%29.69 "Hg6 mi
9:56 AM46 °FLow clouds.17 mph89%29.68 "Hg10 mi
8:56 AM46 °FLow clouds.20 mph89%29.67 "Hg10 mi
7:56 AM45 °FFog.20 mph93%29.67 "Hg6 mi
Weather by CustomWeather, © 2016

See weather overviewHow to use our weather pages